Tracking 19638 objects as of 20-Apr-2019
HD Live streaming from Space Station
objects crossing your sky now

ZACUBE-2

Track ZACUBE-2 now!
10-day predictions


NORAD ID: 43907
Int'l Code: 2018-111AH
Perigee: 486.1 km
Apogee: 515.1 km
Inclination: 97.3 °
Period: 94.5 minutes
Semi major axis: 6871 km
RCS: Unknown
Launch date: December 27, 2018
Source: South Africa (SAFR)
Launch site: VOSTOCHNY COSMODROME (VOSTO)
aabbcc
Your satellite tracking list
Your tracking list is empty




NASA's NSSDC Master Catalog

Two Line Element Set (TLE):
1 43907U 18111AH  19109.86655808  .00000505  00000-0  23536-4 0  9994
2 43907  97.2942  16.7337 0021123 198.2094 161.8389 15.24115789 17330
Source of the keplerian elements: AFSPC